User: anonymous   Login
Location: Unspecified
(0.0000°N, 0.0000°E)
Time: 02:58:01
(UTC+00:00)
Language:

Oscar 10/S400 - Orbit

View from above orbital plane
View from above orbital plane
View from above satellite
View from above satellite

Ground track
Ground track

The orbit data is extracted from the following two-line orbital elements,

1 14129U 83058B   23080.99680269 -.00000217  00000-0  00000-0 0  9994
2 14129  27.0108  50.7719 6037409 157.5875 247.5060  2.05868287271126
Epoch (UTC): 21 March 2023 23:55:23
Eccentricity: 0.6037409
inclination: 27.0108°
perigee height: 3965 km
apogee height: 35482 km
right ascension of ascending node: 50.7719°
argument of perigee: 157.5875°
revolutions per day: 2.05868287
mean anomaly at epoch: 247.5060°
orbit number at epoch: 27112

The dashed part of the orbit path shows where the satellite is in the earth's shadow,  

DLR